This is the latest recevied weather packets stored in our database for station/object N8DMH-13. If no packets are shown the sender has not sent any weather packets the latest 1 day(s).
| Time | Temp. | Humidity | Pressure | Rain* | Wind** | Luminosity | Snow |
|---|---|---|---|---|---|---|---|
| 1778023272 | 12.22° C | 37% | 1007.2 hPa | 0 mm | 1.79 m/s, 248° | - | - |
| 1778022973 | 11.67° C | 37% | 1007.3 hPa | 0 mm | 2.68 m/s, 248° | - | - |
| 1778022642 | 11.67° C | 38% | 1007.2 hPa | 0 mm | 2.24 m/s, 248° | - | - |
| 1778022342 | 12.22° C | 38% | 1007.3 hPa | 0 mm | 1.79 m/s, 248° | - | - |
| 1778022042 | 12.22° C | 37% | 1007.2 hPa | 0 mm | 1.79 m/s, 248° | - | - |
| 1778021712 | 11.67° C | 38% | 1007.3 hPa | 0 mm | 2.24 m/s, 248° | - | - |
| 1778021412 | 11.67° C | 37% | 1007.3 hPa | 0 mm | 1.79 m/s, 248° | - | - |
| 1778021111 | 11.67° C | 40% | 1007.4 hPa | 0 mm | 0.89 m/s, 248° | - | - |
| 1778020781 | 11.67° C | 40% | 1007.4 hPa | 0 mm | 1.79 m/s, 225° | - | - |
| 1778020481 | 11.67° C | 38% | 1007.4 hPa | 0 mm | 1.34 m/s, 248° | - | - |
| 1778020151 | 11.67° C | 39% | 1007.3 hPa | 0 mm | 2.24 m/s, 248° | - | - |
| 1778019851 | 12.22° C | 40% | 1007.2 hPa | 0 mm | 1.79 m/s, 248° | - | - |
| 1778019521 | 12.22° C | 39% | 1007.3 hPa | 0 mm | 2.24 m/s, 225° | - | - |
| 1778019191 | 11.67° C | 40% | 1007.4 hPa | 0 mm | 2.68 m/s, 225° | - | - |
| 1778018891 | 12.22° C | 39% | 1007.3 hPa | 0 mm | 2.68 m/s, 248° | - | - |
| 1778018591 | 11.67° C | 40% | 1007.3 hPa | 0 mm | 2.24 m/s, 248° | - | - |
| 1778018261 | 11.67° C | 40% | 1007.3 hPa | 0 mm | 2.68 m/s, 248° | - | - |
| 1778017930 | 12.22° C | 41% | 1007.3 hPa | 0 mm | 2.24 m/s, 248° | - | - |
| 1778017300 | 11.67° C | 41% | 1007.3 hPa | 0 mm | 1.79 m/s, 248° | - | - |
| 1778016970 | 11.67° C | 39% | 1007.3 hPa | 0 mm | 3.13 m/s, 248° | - | - |
| 1778016640 | 12.22° C | 39% | 1007.2 hPa | 0 mm | 2.24 m/s, 248° | - | - |
| 1778016340 | 12.22° C | 41% | 1007.2 hPa | 0 mm | 1.79 m/s, 248° | - | - |
| 1778016040 | 11.67° C | 40% | 1007.2 hPa | 0 mm | 2.24 m/s, 248° | - | - |
| 1778015740 | 12.22° C | 41% | 1007.2 hPa | 0 mm | 3.13 m/s, 248° | - | - |
| 1778015410 | 12.22° C | 41% | 1007.2 hPa | 0 mm | 2.24 m/s, 248° | - | - |
* Rain latest hour (hover to see other rain measurements)
** Current wind speed in m/s (hover to see current wind gust speed)